Theta_e
308 308 307 307 306 306 306 306 307 307 307 308 308 308 309 309 310 310 314 317 313 321 328 328 329 328 320 319 326 334 328 318 318 319 332 331 333 334 335 330 327 318 317
308 307 307 307 306 306 305 305 306 306 306 307 307 307 307 308 308 309 309 310 309 306 307 321 328 328 328 324 319 321 330 331 319 317 317 328 334 333 335 332 330 324 318
307 307 307 307 306 306 306 305 305 304 305 306 306 306 306 307 307 308 308 309 309 309 306 305 305 320 328 327 326 319 320 327 331 322 317 316 322 335 334 334 332 330 323
307 307 307 306 306 306 306 306 306 305 305 305 306 306 306 306 306 307 307 307 307 308 306 305 305 304 308 325 326 326 320 318 325 330 326 317 314 317 331 334 334 332 329
306 307 306 306 306 306 306 306 306 305 305 305 305 305 305 305 307 307 307 307 307 307 307 306 306 305 305 304 312 324 325 319 317 321 328 328 319 313 316 330 333 333 332
306 306 306 306 305 305 305 305 305 305 305 305 305 305 305 305 305 306 306 307 308 308 308 311 310 307 305 305 304 306 322 324 318 316 319 325 328 320 313 315 332 333 332
305 305 305 305 305 305 304 305 305 304 304 304 304 304 304 304 306 307 306 307 309 309 309 309 311 310 309 310 309 306 305 320 322 315 318 320 325 326 318 312 326 333 333
305 305 305 305 304 304 304 304 304 303 304 304 304 303 304 304 305 307 308 305 304 306 305 307 309 310 309 309 310 309 308 306 314 321 318 323 325 326 325 315 314 328 333
305 305 304 304 304 303 303 303 303 303 302 302 302 303 303 304 303 303 303 304 304 305 304 304 305 306 306 306 307 306 307 308 305 312 321 320 330 328 327 325 314 316 328
305 304 304 303 303 303 303 303 302 302 301 301 301 302 302 302 302 302 302 302 303 303 303 303 303 303 304 305 305 306 307 308 310 308 313 321 321 330 328 328 325 313 321
305 304 304 303 303 303 302 301 301 301 300 300 300 300 301 301 301 301 302 302 302 302 303 303 303 303 304 304 305 305 306 306 307 307 307 313 320 320 329 330 328 324 314
305 304 303 303 302 301 301 300 300 300 300 300 299 299 299 300 300 300 301 301 301 301 301 301 302 302 302 302 303 303 304 305 306 307 305 306 312 319 320 330 330 327 321
304 303 303 302 301 300 299 299 298 298 298 298 298 298 298 299 299 299 299 300 300 300 300 300 301 301 301 302 302 302 303 303 303 304 306 304 305 311 318 319 326 331 326
303 302 301 300 299 299 298 298 297 297 297 297 298 298 298 298 299 299 299 299 300 300 300 300 300 300 300 301 301 301 302 302 303 303 303 303 302 305 310 317 319 327 328
301 300 299 298 298 297 297 297 297 297 297 298 298 298 298 299 299 299 299 299 299 299 300 300 300 300 300 301 301 301 301 302 302 302 303 302 303 302 304 310 315 322 325
300 299 297 297 297 296 296 296 297 297 298 298 298 298 298 298 298 298 298 297 297 297 297 297 298 299 300 300 300 300 300 301 302 303 304 304 305 302 302 304 312 317 323
298 297 297 296 296 296 296 296 297 298 298 298 298 297 297 297 297 296 296 296 296 295 295 296 296 297 298 299 299 300 300 300 301 302 303 305 305 304 302 302 306 312 320
297 296 295 295 295 295 296 297 297 298 298 297 297 297 297 296 296 296 296 296 296 296 296 296 296 296 296 297 298 299 300 300 301 302 302 304 304 303 301 301 303 309 313
295 295 295 295 295 296 296 297 297 297 297 297 297 297 297 297 297 297 297 297 297 297 297 297 297 297 296 296 296 297 298 299 300 300 302 303 303 303 302 301 301 304 311
295 295 295 295 296 297 297 296 296 296 297 297 297 297 298 298 298 298 298 298 298 297 297 298 297 297 297 296 296 296 297 298 299 300 300 301 302 302 302 300 301 303 307
294 295 295 296 296 296 296 296 297 297 296 297 298 298 298 299 299 299 299 299 298 298 298 298 298 297 297 297 297 297 297 298 299 300 301 301 302 302 302 302 301 304 305
295 295 295 295 294 294 295 296 297 297 297 298 298 299 299 299 299 300 301 301 302 302 299 299 298 298 299 298 298 297 298 299 300 300 300 302 302 303 305 303 302 304 305
294 295 295 294 294 294 295 296 297 298 298 298 298 298 298 298 299 298 299 300 300 301 302 303 300 300 299 299 298 298 298 299 299 299 300 301 302 302 303 307 305 306 304
295 294 294 294 294 294 295 296 296 298 297 297 298 298 298 298 298 299 300 300 300 300 300 301 300 300 299 299 298 298 299 299 299 299 300 301 301 303 304 304 307 307 307
293 293 293 294 294 294 295 295 296 297 297 297 297 297 297 297 299 299 300 303 302 302 301 300 300 300 300 299 299 299 299 299 299 299 299 300 301 302 304 305 306 307 308
293 293 293 293 294 295 295 295 296 297 297 297 296 296 295 298 298 299 301 301 304 302 300 300 301 298 299 299 298 298 298 299 299 300 300 300 301 301 304 305 305 305 306
Wind_Speed
8 9 9 10 12 13 13 13 13 14 14 13 13 13 13 13 14 13 15 21 24 20 21 20 20 18 17 18 18 16 16 14 14 16 15 16 14 14 12 9 7 6 6
8 9 9 11 13 14 14 13 14 15 14 14 15 15 15 15 14 15 16 18 23 24 21 23 23 23 22 21 21 21 19 18 16 16 18 17 17 16 16 13 10 8 8
9 9 10 12 14 14 16 16 15 16 16 16 16 16 16 16 16 16 17 18 19 22 25 23 22 25 26 25 24 23 23 21 21 19 18 19 20 18 18 18 14 12 10
9 9 9 12 16 17 18 20 20 20 19 18 19 18 17 18 18 18 19 19 20 21 23 25 26 24 25 28 28 27 26 26 24 23 22 19 20 23 21 21 19 16 14
7 6 9 11 14 16 16 20 20 21 22 22 20 20 22 22 19 19 20 20 20 22 25 24 23 27 26 25 29 30 30 29 28 26 25 24 20 21 24 23 23 21 19
8 8 9 11 15 16 17 22 21 24 24 21 20 22 20 21 23 22 20 19 18 19 21 21 19 23 23 25 26 29 32 31 29 30 28 27 26 22 22 25 25 25 22
9 10 12 15 17 19 21 22 23 26 27 21 21 22 23 24 14 15 21 18 16 17 18 19 20 20 16 18 23 24 29 31 31 31 31 31 30 28 24 26 26 28 26
12 14 15 17 18 20 20 21 23 25 22 18 19 22 18 21 14 7 11 16 22 21 21 20 19 19 19 21 22 23 26 28 32 33 32 32 32 32 29 25 29 28 29
16 17 17 18 18 19 22 25 22 21 21 20 17 15 13 11 23 24 20 19 18 21 24 24 23 23 24 24 26 26 26 25 28 32 34 35 31 32 32 30 27 32 30
16 15 16 18 21 21 21 21 19 19 21 23 21 19 21 26 28 29 27 24 26 27 28 28 29 27 26 25 26 25 26 27 27 28 32 36 38 32 33 33 30 30 34
13 14 16 17 19 20 22 23 23 21 21 23 24 24 25 26 26 30 33 30 28 27 27 26 26 25 25 27 27 28 27 26 31 35 32 32 36 40 32 34 34 29 34
15 15 16 18 21 24 24 24 24 23 24 24 26 26 27 28 28 28 31 32 31 30 30 30 30 30 30 30 28 27 28 29 30 33 34 34 33 37 41 33 34 35 30
16 17 20 24 25 24 26 26 27 27 26 27 27 28 29 30 29 30 31 35 33 33 31 31 32 31 30 28 28 27 29 30 32 36 36 34 34 34 35 41 36 34 36
19 21 24 23 23 24 25 26 27 28 27 27 29 29 30 30 29 29 30 30 33 34 31 31 27 28 29 30 30 29 31 29 29 31 33 37 36 34 34 34 42 38 37
21 22 24 25 25 25 25 26 29 27 27 27 28 27 27 29 28 29 29 28 28 32 34 27 24 22 23 24 25 25 25 25 27 28 32 31 35 35 34 34 36 42 39
22 24 25 25 26 26 26 26 29 28 27 27 28 27 28 29 29 29 31 32 31 31 38 30 28 25 24 25 26 26 26 27 29 27 26 28 29 34 34 35 34 40 43
24 25 26 27 27 28 27 27 27 27 28 28 28 29 32 33 36 37 35 35 33 32 38 37 34 35 29 29 27 28 27 27 26 27 28 29 32 33 33 35 36 34 43
24 26 26 27 28 28 28 27 27 27 29 30 30 30 30 31 33 30 31 32 32 31 34 36 32 31 28 33 32 28 27 26 26 24 24 26 27 30 35 35 37 36 37
25 26 26 27 28 28 27 26 27 29 29 30 32 33 32 31 33 34 35 35 37 38 39 37 35 31 33 30 33 35 28 28 28 28 28 27 26 30 32 36 35 37 35
26 26 26 27 27 27 27 28 30 30 30 32 34 35 37 36 38 38 40 40 40 41 42 39 40 36 33 33 30 28 30 29 29 27 26 26 28 31 33 36 36 38 37
26 26 27 26 26 27 29 28 29 33 35 37 38 38 39 40 38 38 40 42 42 43 40 39 36 35 33 32 31 27 26 26 25 24 23 24 24 25 32 31 36 37 37
26 26 26 28 31 31 28 28 30 34 35 36 38 37 37 35 37 37 37 39 41 43 48 42 41 39 36 32 29 28 26 24 24 21 23 21 23 24 23 27 34 38 38
27 26 27 30 31 33 29 29 29 32 33 33 34 34 35 35 33 40 43 42 43 41 39 42 48 42 40 34 33 32 27 26 26 22 21 24 21 25 26 23 29 30 37
25 26 29 29 32 34 29 28 29 32 30 30 29 31 34 38 38 40 39 44 41 37 36 37 35 33 39 33 31 36 26 28 27 26 21 25 23 24 24 29 24 29 32
28 30 29 29 33 31 26 27 26 30 28 31 33 29 36 36 31 32 35 38 42 44 34 25 25 27 23 31 33 38 29 31 31 30 25 26 28 25 24 27 29 32 31
30 30 31 31 27 26 26 23 26 29 28 31 34 35 39 30 25 26 27 27 23 26 24 24 20 21 22 25 23 25 26 27 27 21 23 24 26 24 22 27 30 29 33
Wind_Direction
44 35 28 19 11 7 1 354 349 343 338 333 328 322 317 310 302 294 281 285 289 281 277 277 275 273 267 263 261 259 258 263 256 249 245 242 243 241 238 241 239 222 225
50 46 33 19 10 4 1 353 348 338 337 331 325 323 317 310 303 295 292 287 293 296 278 271 270 269 267 264 261 261 259 257 259 254 247 243 241 240 239 238 235 233 220
49 37 29 18 13 4 359 354 347 342 335 330 324 319 313 308 303 301 295 284 283 288 296 286 271 266 263 263 262 259 258 257 254 254 251 245 243 242 239 238 235 231 229
32 25 16 6 6 1 359 355 349 342 335 329 322 317 313 307 303 297 292 290 288 284 279 285 286 275 263 260 260 260 256 255 254 252 252 251 246 242 239 235 234 231 230
19 6 360 358 352 353 352 346 343 338 333 325 321 312 308 307 302 298 293 290 289 289 289 284 279 278 275 264 258 257 255 253 252 251 252 251 251 246 240 236 232 232 229
336 341 341 338 338 338 336 337 334 332 327 319 312 307 309 298 295 294 293 290 286 284 281 284 276 276 278 275 265 256 253 251 249 249 248 249 249 249 242 237 231 229 229
306 321 322 326 326 327 327 330 327 324 322 316 313 307 302 317 307 290 287 284 287 287 285 289 287 290 281 277 287 276 255 251 247 244 246 246 246 246 244 239 233 230 229
293 304 309 314 319 316 318 319 318 316 311 312 306 308 310 306 308 300 284 278 285 279 282 280 277 275 276 274 271 270 269 257 250 244 239 243 242 243 243 239 234 231 229
291 296 301 306 308 309 312 315 312 303 301 300 297 290 304 292 302 287 291 283 276 272 278 276 271 271 269 268 267 272 275 279 260 249 241 237 239 240 240 239 235 230 228
283 286 294 301 305 306 304 303 301 293 291 291 292 283 275 278 286 291 284 274 272 273 269 266 270 274 271 268 266 264 257 261 267 256 248 241 235 235 239 238 236 232 229
277 281 290 295 299 299 297 294 294 292 285 282 281 282 279 278 275 278 283 282 278 273 274 267 269 270 268 267 262 255 254 258 261 261 253 248 241 234 231 238 235 232 228
280 285 290 291 294 294 294 290 286 284 283 280 278 276 274 273 275 275 279 280 278 276 272 273 273 269 267 266 265 262 256 250 256 259 258 250 247 240 232 231 234 233 228
286 288 292 294 294 293 292 292 289 286 283 280 278 276 272 270 271 272 274 278 279 279 275 271 269 270 270 268 267 264 261 259 257 257 253 254 248 245 239 232 227 230 229
291 292 295 294 293 293 291 289 286 284 283 280 278 275 274 271 270 269 270 276 282 280 278 274 274 273 271 270 269 263 261 258 255 259 259 252 251 246 244 239 230 224 227
294 294 293 296 294 293 292 289 285 285 283 280 278 276 273 272 271 269 269 269 273 283 280 278 280 276 272 273 269 267 268 268 266 261 258 255 249 247 243 240 234 226 226
297 295 296 295 294 293 292 290 287 286 283 280 279 278 275 274 271 268 267 267 266 274 281 275 276 274 274 272 270 267 266 265 253 253 254 254 247 246 243 239 237 228 224
297 296 295 294 293 292 291 289 287 284 282 281 278 277 275 274 273 272 269 269 268 270 269 278 276 271 270 270 270 270 268 269 272 249 248 245 244 247 242 237 234 232 226
296 296 296 295 294 294 292 289 286 284 281 280 281 279 275 273 275 273 265 265 261 259 261 267 272 275 272 264 263 270 267 262 262 263 247 253 254 249 242 237 233 232 226
300 299 298 296 295 293 291 289 286 284 282 280 279 276 278 275 269 266 267 264 263 264 263 262 266 267 268 278 270 256 263 264 260 256 247 239 239 245 250 239 233 230 226
301 300 298 296 295 295 291 287 287 288 284 281 279 281 282 281 279 279 270 263 262 259 262 257 259 261 261 269 271 261 259 252 261 256 253 250 253 252 250 242 232 228 226
301 301 300 299 295 291 288 289 288 289 288 287 289 290 289 286 274 271 268 265 259 259 256 254 254 251 253 255 253 257 256 259 256 254 255 252 250 252 244 239 231 229 227
303 301 300 296 297 302 297 292 289 288 289 291 292 291 290 286 281 280 275 272 269 266 252 247 245 244 245 243 249 252 247 256 257 259 251 256 244 246 248 236 233 227 225
304 302 299 299 302 304 299 296 293 293 293 293 295 294 297 295 285 283 284 281 270 267 264 265 251 247 240 236 235 239 245 247 248 252 255 258 248 248 242 239 232 229 227
304 302 303 305 301 302 299 297 298 298 296 297 299 297 300 295 289 290 287 284 280 275 264 257 262 261 251 235 225 240 248 246 257 252 247 257 251 250 240 232 228 228 226
303 311 307 305 304 305 305 305 300 301 302 304 299 303 308 299 299 295 291 292 273 265 270 256 256 257 264 251 243 243 237 241 250 254 251 247 248 246 237 229 231 223 223
306 311 313 312 313 313 314 308 306 303 306 310 312 307 314 305 305 308 309 304 277 246 250 249 253 245 246 240 228 229 241 235 241 249 255 242 248 240 246 227 228 230 222